This demonstration page uses our WeatherBlox Daily Observations layout. Learn more.

Left ArrowRight Arrow

Hourly Observations for February 23, 2020

Temp ( °F °C ) Dew Point ( °F °C ) Humidity (%) Winds ( mph kmh ) Pressure ( in mb ) Visibility ( mi km ) Precip ( " mm )
12:56 am 00:56 Clear 34 1.1 21 -6.1 59 59 WSW 5 7 29.96 1015 10 16 0.00 0.00
1:56 am 01:56 Clear 31 -0.6 23 -5 72 72 W 3 6 29.96 1015 10 16 0.00 0.00
2:56 am 02:56 Clear 32 0 23 -5 69 69 NNW 3 6 29.94 1014 10 16 0.00 0.00
3:56 am 03:56 Clear 31 -0.6 24 -4.4 76 76 WSW 5 7 29.94 1014 10 16 0.00 0.00
4:56 am 04:56 Clear 33 0.6 22 -5.6 64 64 NW 8 13 29.96 1014 10 16 0.00 0.00
5:56 am 05:56 Clear 32 0 22 -5.6 66 66 NNW 8 13 29.97 1015 10 16 0.00 0.00
6:56 am 06:56 Clear 30 -1.1 23 -5 75 75 NW 7 11 29.98 1015 10 16 0.00 0.00
7:56 am 07:56 Sunny 34 1.1 22 -5.6 61 61 VRB 3 6 30.00 1016 10 16 0.00 0.00
8:56 am 08:56 Sunny 37 2.8 25 -3.9 62 62 NNW 5 7 30.03 1017 10 16 0.00 0.00
9:56 am 09:56 Sunny 43 6.1 24 -4.4 47 47 N 9 15 30.02 1017 10 16 0.00 0.00
10:56 am 10:56 Sunny 44 6.7 26 -3.3 49 49 N 7 11 30.02 1017 10 16 0.00 0.00
11:56 am 11:56 Sunny 46 7.8 27 -2.8 47 47 N 9 15 30.01 1016 10 16 0.00 0.00
12:56 pm 12:56 Sunny 49 9.4 28 -2.2 44 44 N 10 17 29.97 1015 10 16 0.00 0.00
1:56 pm 13:56 Cloudy 48 8.9 28 -2.2 46 46 NE 13 20 29.97 1015 10 16 0.00 0.00
2:56 pm 14:56 Partly Cloudy 51 10.6 27 -2.8 39 39 ENE 8 13 29.96 1015 10 16 0.00 0.00
3:56 pm 15:56 Sunny 51 10.6 27 -2.8 39 39 NE 13 20 29.95 1014 10 16 0.00 0.00
4:56 pm 16:56 Mostly Sunny 49 9.4 30 -1.1 48 48 NE 9 15 29.94 1014 10 16 0.00 0.00
5:56 pm 17:56 Sunny 44 6.7 28 -2.2 53 53 NE 9 15 29.96 1015 10 16 0.00 0.00
6:56 pm 18:56 Clear 43 6.1 30 -1.1 60 60 NE 10 17 29.98 1015 10 16 0.00 0.00
7:56 pm 19:56 Clear 40 4.4 30 -1.1 68 68 NNE 10 17 30.00 1016 10 16 0.00 0.00
8:56 pm 20:56 Mostly Clear 39 3.9 28 -2.2 65 65 NNE 15 24 29.99 1016 10 16 0.00 0.00
9:56 pm 21:56 Clear 37 2.8 28 -2.2 70 70 NNE 14 22 29.97 1015 10 16 0.00 0.00
10:56 pm 22:56 Partly Cloudy 35 1.7 27 -2.8 72 72 NNE 15 24 29.95 1014 10 16 0.00 0.00
11:56 pm 23:56 Clear 34 1.1 26 -3.3 73 73 NE 12 19 29.94 1014 10 16 0.00 0.00

Powered by AerisWeather